Dewpoint
57 57 57 57 57 58 57 56 56 58 58 58 61 61 63 61 61 61 63 63 62 63 63 63 63 62 62 62 62 62 62 62 63
57 57 57 57 56 56 56 56 55 55 57 59 63 62 61 59 59 59 60 62 62 63 62 63 62 62 62 61 61 60 61 62 62
57 57 57 56 56 56 56 56 55 55 57 61 62 61 59 58 57 58 60 62 62 62 62 61 61 61 61 60 60 59 58 59 60
56 57 56 56 57 57 57 56 55 56 59 60 60 60 58 57 56 55 58 61 62 61 61 60 59 58 57 57 56 56 56 56 56
56 57 56 56 58 58 58 56 55 58 58 56 58 57 56 55 56 55 54 57 59 60 59 58 56 55 55 55 54 54 54 54 55
56 56 55 55 56 58 57 55 55 53 51 54 56 55 55 55 55 56 55 54 55 56 57 53 53 53 53 53 53 53 53 53 53
54 55 55 53 52 54 55 53 52 48 48 49 53 53 53 53 54 56 55 54 54 53 52 53 53 53 52 52 52 52 52 53 52
51 53 52 52 50 49 51 55 53 49 48 47 50 51 51 51 53 55 54 53 53 53 53 52 53 52 52 51 51 51 52 52 52
43 43 44 45 45 45 45 45 45 47 46 46 48 48 48 50 52 55 55 53 53 53 52 52 52 52 51 50 50 50 50 50 51
42 43 42 42 43 45 45 43 46 46 46 45 46 46 46 50 51 53 54 53 52 52 52 52 51 51 51 51 50 50 50 50 50
39 40 40 39 43 45 45 44 47 46 47 45 45 44 44 48 50 51 52 53 52 51 51 51 51 51 51 50 50 50 50 50 50
40 40 39 38 42 46 46 45 47 48 48 46 45 44 43 43 47 49 50 50 49 46 47 47 48 50 50 50 49 48 48 48 48
40 40 38 38 42 45 47 47 47 48 47 46 46 45 42 41 43 44 45 46 44 44 45 47 48 48 47 47 47 47 46 46 47
39 40 39 39 39 43 45 46 47 48 47 47 46 44 43 41 41 38 40 43 39 42 44 44 43 44 43 45 46 46 46 46 46
39 40 39 39 38 38 40 41 45 47 46 46 47 45 45 43 40 37 39 40 40 40 42 40 43 41 41 41 43 40 38 38 38
37 39 40 40 38 38 38 40 43 43 46 46 47 47 46 47 42 37 38 38 38 38 37 37 37 39 37 40 39 37 36 35 35
36 37 37 39 38 38 38 39 39 38 40 43 44 44 46 47 46 38 36 35 36 35 36 35 35 35 35 39 36 34 33 33 35
36 36 37 37 38 36 36 38 36 36 37 38 40 40 39 42 41 42 38 36 36 36 35 34 32 31 35 33 31 31 30 32 33
38 37 36 37 38 37 37 38 38 36 35 35 35 35 38 36 36 42 42 38 37 35 34 25 27 24 31 32 29 29 29 30 32
38 37 37 37 38 36 37 36 35 38 35 35 33 33 32 31 33 35 38 38 36 33 28 22 23 23 25 23 27 27 27 29 30
Wind_Speed
16 16 17 16 16 17 17 17 16 14 14 14 15 20 22 18 14 12 14 13 16 16 18 20 21 23 23 24 23 23 22 21 20
17 16 16 16 16 16 17 16 14 12 15 15 23 24 18 17 16 14 14 15 19 21 22 24 23 23 23 22 21 21 21 22 22
17 17 16 16 16 17 16 15 13 12 13 15 18 21 20 16 15 15 12 16 18 20 23 23 23 22 21 20 20 19 18 19 20
17 16 16 16 16 17 16 14 12 12 13 14 16 16 22 18 15 13 11 15 18 19 22 21 22 19 18 17 17 17 17 16 16
15 14 15 16 15 16 15 13 11 11 11 11 15 19 20 16 14 11 11 13 14 19 20 20 20 17 17 18 18 18 18 18 18
13 13 14 14 15 14 14 11 10 8 10 18 23 19 14 15 13 8 14 14 14 14 17 17 17 17 18 18 18 18 18 18 18
12 12 12 13 13 13 13 11 9 9 9 15 16 14 15 14 13 11 13 15 15 15 15 17 17 18 18 17 17 17 17 17 17
11 9 9 9 10 9 9 6 3 2 6 16 15 15 15 14 12 11 11 14 15 15 15 15 16 17 17 17 17 17 17 17 17
12 11 9 9 8 8 6 6 5 6 9 17 17 17 15 14 12 12 13 14 14 14 15 14 16 16 15 16 16 16 16 16 16
11 9 8 7 8 9 9 8 9 13 13 14 18 16 16 15 13 12 14 14 14 14 15 14 14 14 14 15 15 15 15 15 14
12 9 9 8 8 9 10 10 11 12 15 15 17 16 15 15 13 12 13 14 14 14 13 13 13 13 13 13 13 13 13 13 13
12 11 8 7 7 10 12 10 11 12 12 14 14 16 15 14 14 12 11 12 13 12 12 12 12 12 12 12 12 12 12 12 12
9 10 9 7 8 9 11 12 12 13 13 11 10 11 14 13 13 11 10 9 9 11 12 12 12 12 11 11 11 12 12 12 12
12 11 9 8 8 8 8 6 11 12 11 11 10 10 11 13 13 12 10 9 8 8 10 11 10 10 11 11 12 13 14 15 15
13 12 11 8 9 8 7 8 6 9 13 12 9 8 8 10 11 11 10 11 9 7 7 6 6 7 8 9 12 13 14 15 16
13 12 10 9 11 9 10 7 10 7 8 10 7 4 4 7 11 11 11 10 8 7 7 6 5 6 7 8 10 12 14 15 16
12 13 11 11 9 9 10 9 6 4 4 6 6 5 1 2 7 10 10 11 8 7 7 6 6 6 6 8 9 11 14 16 17
13 12 10 10 10 12 9 8 7 8 1 3 5 4 6 4 2 8 10 11 8 7 5 5 6 8 7 7 7 8 11 15 18
12 13 13 12 11 11 9 8 7 7 9 3 3 4 4 4 4 2 6 9 8 7 5 5 8 8 8 6 5 6 10 15 17
14 14 14 12 13 12 11 8 9 7 9 5 4 2 4 4 3 4 4 2 0 4 4 2 6 6 6 5 3 5 11 16 17
Wind_Direction
112 116 112 108 109 109 106 103 102 103 94 69 52 95 88 73 69 65 67 81 87 83 86 82 83 79 73 64 63 60 61 64 64
117 115 114 113 112 112 108 104 102 102 87 73 87 94 87 79 68 57 53 76 82 87 80 76 72 70 67 64 61 57 50 51 53
120 121 116 115 117 118 113 110 109 104 95 80 94 106 90 77 70 63 60 70 82 79 79 69 63 60 61 61 60 59 56 46 44
121 119 119 117 117 118 115 111 107 104 90 79 71 87 91 85 76 66 62 70 75 82 82 76 67 61 61 61 60 57 57 57 53
117 116 120 119 118 119 117 114 109 103 93 79 82 89 83 87 80 77 83 75 71 72 77 73 67 66 65 64 63 60 58 56 54
104 109 116 122 122 123 121 118 112 99 69 58 100 87 77 73 66 69 83 83 85 77 70 74 75 72 68 66 65 64 61 59 57
118 114 120 125 127 128 128 124 111 83 55 79 89 94 86 72 62 53 80 88 84 86 84 82 80 74 69 66 65 63 60 59 57
129 128 128 132 133 133 126 121 114 70 77 102 107 102 88 81 69 54 74 91 92 91 89 85 83 76 72 68 65 61 58 55 52
145 148 153 150 145 138 146 155 156 141 123 105 107 103 100 91 77 61 72 88 92 93 91 87 81 80 74 69 64 60 56 54 51
172 170 167 181 162 154 156 129 106 114 106 102 117 112 111 104 91 77 74 84 90 88 85 83 83 82 77 70 65 59 54 50 47
152 149 148 127 141 136 141 131 122 111 108 104 115 123 122 118 111 97 82 77 86 86 82 77 75 76 74 68 60 52 45 39 35
140 141 137 135 122 126 130 129 114 115 112 114 114 127 130 127 125 117 103 91 82 89 88 86 82 75 67 60 54 46 39 31 24
141 141 147 148 132 123 126 135 130 128 124 122 121 122 134 140 134 127 119 113 103 90 85 81 79 71 62 54 46 39 33 26 20
146 151 156 150 144 142 139 138 140 143 140 135 130 125 130 130 132 131 128 140 120 109 93 83 76 66 53 47 38 34 27 20 13
149 155 156 158 148 149 145 141 124 151 154 136 133 141 137 148 146 138 127 127 131 123 121 97 79 70 56 49 39 31 23 13 6
152 157 157 159 157 160 150 129 141 124 136 117 103 98 130 149 159 154 146 141 139 133 135 126 109 88 70 64 40 24 13 5 359
156 161 162 165 158 160 159 154 135 115 149 143 129 167 214 190 165 168 160 158 158 160 166 156 143 125 105 94 56 28 8 358 352
162 166 160 157 155 160 157 160 151 156 111 143 159 148 209 159 209 186 178 173 178 186 180 153 138 122 116 97 65 34 6 352 346
164 164 160 160 158 161 160 160 160 157 170 125 95 98 143 171 184 225 206 192 194 183 168 130 138 133 131 128 86 34 359 346 341
166 163 157 155 153 150 148 146 148 166 162 165 153 122 70 80 131 178 199 204 149 160 169 152 158 154 150 145 109 29 350 343 335